Regional Weather Roundup
Issued by NWS Austin/San Antonio, TX

Home | Current Version | Previous Version | Text Only | Print | Product List | Glossary On
Versions: 1 2 3 4 5 6 7 8 9 10 11 12 13 14 15 16 17 18 19 20 21 22 23 24 25 26 27 28 29 30 31 32 33 34 35 36 37 38 39 40 41 42 43 44 45 46 47 48 49 50
000
ASUS44 KEWX 210502
RWREWX
SOUTH TEXAS REGIONAL WEATHER ROUNDUP
NATIONAL WEATHER SERVICE AUSTIN/SAN ANTONIO TX
1200 AM CDT MON MAY 21 2018

NOTE: "FAIR" INDICATED FEW OR NO CLOUDS BELOW 12,000 FEET WITH NO
SIGNIFICANT WEATHER AND/OR OBSTRUCTIONS TO VISIBILITY.

* - THESE STATIONS ARE NOT NWS OR FAA STATIONS...AND ARE NOT SUBJECT
    TO NWS AND FAA QUALITY CONTROL.

TXZ171-172-183>190-210600-
TEXAS HILL COUNTRY AND EDWARDS PLATEAU

CITY           SKY/WX    TMP DP  RH WIND       PRES   REMARKS
JUNCTION       CLOUDY   N/A N/A N/A CALM      30.04R
*LLANO         CLOUDY    72  68  88 CALM      30.05R
BURNET         PTCLDY    69  66  90 NE5       30.03S
*HORSESHOE BAY PTCLDY    68  66  93 CALM      30.01S
*KERRVILLE     CLOUDY    63  60  90 CALM      30.02S
*FREDERICKSBRG PTCLDY    67  64  92 CALM      30.02F
*ROCKSPRINGS   CLOUDY    64  61  88 NE6       30.08F
*BOERNE STAGE  CLOUDY    66  64  94 CALM      30.02R
*CASTROVILLE   MOCLDY    66  65  94 N5        29.99F
HONDO          CLOUDY    66  64  93 N3        29.99S
*UVALDE        CLOUDY    65  63  95 NE6       29.98F
DEL RIO        PTCLDY    72  66  81 SE5       29.95S
LAUGHLIN AFB   CLEAR     70  67  90 CALM      29.95F
CARRIZO SPRGS  CLOUDY    70  63  78 E6        29.95F
*EAGLE PASS    CLOUDY    70  63  78 NE9       29.95F
*FAITH RANCH   CLOUDY    73  66  78 VRB3G12   29.96S
$$

TXZ173-191>194-202-209-217>225-228-210600-
CENTRAL AND SOUTH CENTRAL TEXAS

CITY           SKY/WX    TMP DP  RH WIND       PRES   REMARKS
GEORGETOWN     CLOUDY    69  67  93 NE3       30.02R
AUSTIN/BERGSTM MOCLDY    71  68  90 NE5       29.97S
AUSTIN/MABRY   CLOUDY    70  67  90 CALM      30.00R
*AUSTIN/EXEC   CLOUDY    68  68 100 CALM      30.00R
*LAGO VISTA    MOCLDY    68  68  99 E5        30.01S
SAN MARCOS     MOCLDY    69  68  96 NE7       29.97F
NEW BRAUNFELS  MOCLDY    69  67  93 NE9       29.94F
RANDOLPH AFB   MOCLDY    70  67  92 N7        29.96F
PT SAN ANTONIO MOCLDY    68  65  90 W6        29.95F
SAN ANTONIO    MOCLDY    70  66  87 N7        29.98S
STINSON FIELD  CLOUDY    72  66  81 NW6       29.94F
*LA GRANGE     CLOUDY    71  71  98 E5        29.95R
*GIDDINGS      CLOUDY    66  64  94 E5        29.99R
*GONZALES      CLOUDY    71  69  95 NE3       29.94R
$$

TXZ163>164-176>182-195>201-210>213-226-227-235-210600-
SOUTHEAST TEXAS

CITY           SKY/WX    TMP DP  RH WIND       PRES   REMARKS
COLLEGE STN    CLOUDY    68  67  96 SE3       29.98F
*BRYAN         CLOUDY    67  67 100 S3        30.00S
*CALDWELL      CLOUDY    68  66  93 SE3       29.99S
*CROCKETT      CLOUDY    68  66  94 CALM      30.03R
*BRENHAM       NOT AVBL
HUNTSVILLE     CLOUDY    69  66  90 S3        29.99S
CONROE         CLOUDY    68  68 100 CALM      29.98F
HOUSTON BUSH   CLOUDY    69  69 100 N3        29.99S
HOUSTON HOBBY  CLOUDY    71  70  96 S6        29.98S
*HOUSTON SW AP FAIR      68  67  97 CALM      30.00R
PEARLAND       FAIR      72  71  97 S3        29.99F
HOUSTON HOOKS  FAIR      69  69 100 SE5       29.97F
ELLINGTON FLD  NOT AVBL
SUGAR LAND     FAIR      72  69  90 W5        29.99S
*HOUSTON EXEC  FAIR      68  68 100 E3        30.00F
*CLEVELAND MUN FAIR      69  67  92 CALM      30.01R
*WHARTON       CLOUDY    70  67  90 CALM      29.99F
*COLUMBUS      FAIR      70  68  94 E8        29.98S
*EAGLE LAKE    CLOUDY    71  70  97 SE5       29.97F
$$

TXZ214>216-236>238-210600-
THE UPPER TEXAS COAST

CITY           SKY/WX    TMP DP  RH WIND       PRES   REMARKS
*ORANGE        FAIR      74  73  96 CALM      30.01F
PORT ARTHUR    FAIR      73  68  84 E3        29.98F
GALVESTON      FAIR      74  72  93 E8        29.99F
ANGLETON       FAIR      73  70  90 E3        30.00R
*BAY CITY      CLOUDY    74  71  90 CALM      29.98F
PALACIOS       CLOUDY    78  72  81 SE8       29.95F
$$

TXZ229>234-239>247-210600-
TEXAS COASTAL BEND AND RIO GRANDE PLAINS

CITY           SKY/WX    TMP DP  RH WIND       PRES   REMARKS
VICTORIA       CLOUDY    70  68  93 SE25G33   29.82F
*BEEVILLE      CLOUDY    73  62  69 SW14G22   29.88F
ROCKPORT       CLOUDY    71  68  90 S8        29.95F
*PORT ARANSAS  NOT AVBL
*PORT LAVACA   CLOUDY    69  66  90 SE7       29.93F
*INGLESIDE     CLOUDY    71  67  87 SE9       29.97F
CORPUS CHRISTI TSTM      72  69  90 SE14      29.99F
CORPUS NAS     TSTM      74  70  87 VRB5      29.98F
*ROBSTOWN      TSTM      70  67  89 SE14      29.98F
ALICE          LGT RAIN  69  65  86 E28G37    29.88F
KINGSVILLE NAS TSTM      69  67  93 E13       29.96F
COTULLA        CLOUDY    67  65  93 CALM      29.95R
LAREDO         LGT RAIN  75  69  81 SE8       29.93F
$$

TXZ248>255-210600-
DEEP SOUTH TEXAS

CITY           SKY/WX    TMP DP  RH WIND       PRES   REMARKS
BROWNSVILLE    FAIR      82  78  88 E12       29.97R HX  91
PORT ISABEL    FAIR      81  75  82 E14       29.97R
*SOUTH PADRE   NOT AVBL
HARLINGEN      CLOUDY    80  78  94 E14       29.96R
*HEBBRONVILLE  CLOUDY    70  65  85 SE3       29.95S
MCALLEN        CLOUDY    83  77  82 E17G24    29.95R HX  92
*WESLACO       NOT AVBL
FALFURRIAS     CLOUDY    68  65  90 E20G30    29.93F
EDINBURG       CLOUDY    82  75  78 E13       29.95R
*ZAPATA        FAIR      77  68  74 E8G16     29.93S
$$

TXZ213>215-236>238-242>244-246-247-251-254-255-210600-
CMAN STATIONS

STATION/POSITION TIME  TEMP    WIND        PRES    WAVE
                       AIR SEA DIR/SP/G            HT/PER
                 (UTC) (F)     (DEG/KT/KT) (MB)    (FT/S)
SABINE PASS      0418   76 84  290/  3/  7 1017.8
SEA RIM ST PARK  0400   74     360/  3/  3 1016.8
NORTH JETTY/GLS  0418   75 81   90/  8/  9 1015.5
EAGLE POINT      0430   78 84  120/ 11/ 13 1015.1
MORGANS POINT    0418   76 83  120/ 10/ 13 1015.0
PORT O`CONNOR    0418   74 83  220/  6/  7 1015.5
PORT ARANSAS     0400   73 82  320/ 10/ 12 1017.2
MALAQUITE BEACH  0418   73 83   10/ 17/ 19 1015.8
BAFFIN BAY       0418   69 83  340/ 19/ 22 1017.9
PORT ISABEL      0418   80 83  100/  9/ 13 1014.8
$$




USA.gov is the U.S. government's official web portal to all federal, state and local government web resources and services.